OpenBCM V1.07b12 (Linux)

Packet Radio Mailbox

DB0FHN

[JN59NK Nuernberg]

 Login: GUEST





  
I0OJJ  > KEPS     02.12.24 05:33l 364 Lines 17366 Bytes #999 (0) @ AMSAT
BID : ORB24337.1
Read: DJ6UX GUEST
Subj: 2Line Orbital Elements 24337.AMSAT
Path: DB0FHN<DB0RKB<DK0WUE<DK0WUE<VK5RSV<VK2RZ<LU9DCE<EA2RCF<I0OJJ
Sent: 241202/0411z @:I0OJJ.ITA.EU [Rome] obcm1.08-6-g5b69
From: I0OJJ @ I0OJJ.ITA.EU (Gustavo)
To:   KEPS @ AMSAT
X-Info: This message was generated automatically


QST de W1STR

AMSAT Orbital Elements for Amateur Satellites in TLE Format
From Orbital Analysis Office
New England Sci-Tech STEM Education Center
Natick, MA December 02, 2024
To all radio amateurs


These element sets describe the orbits of various satellites 
in use by the amateur radio community. For details see:
www.amsat.org/keplerian-elements-formats/

A daily update of element sets is available at:
www.amsat.org/tle/daily-bulletin.txt
or without bulletin text:
www.amsat.org/tle/dailytle.txt


AO-27
1 22825U 93061C   24336.55797726  .00000497  00000-0  20762-3 0  9994
2 22825  98.7667  30.9028 0007583 314.5991  45.4572 14.30670133626819
FO-29
1 24278U 96046B   24336.51551197  .00000023  00000-0  56635-4 0  9994
2 24278  98.5871 249.2618 0350935 114.8195 248.9870 13.53223417397311
NOAA-15
1 25338U 98030A   24336.78125501  .00000594  00000-0  26279-3 0  9995
2 25338  98.5542   0.3163 0010076 188.8216 171.2789 14.26813296381332
GO-32
1 25397U 98043D   24336.87352993  .00000385  00000-0  18690-3 0  9997
2 25397  98.9465 306.3090 0002124  58.2748 301.8637 14.24202417371504
ISS
1 25544U 98067A   24336.92256553  .00019010  00000-0  33860-3 0  9999
2 25544  51.6394 204.3790 0006951 290.5473 165.2000 15.50120267484566
NO-44
1 26931U 01043C   24335.78627728  .00000813  00000-0  33658-3 0  9993
2 26931  67.0510 261.0641 0007019 261.3722  98.6585 14.31521784209796
SO-50
1 27607U 02058C   24335.66937510  .00004091  00000-0  54719-3 0  9994
2 27607  64.5559  69.3133 0033299  27.8133 332.4743 14.80412779180955
CO-55
1 27844U 03031E   24335.75163205  .00001178  00000-0  53524-3 0  9997
2 27844  98.6779 340.5184 0010218  27.4016 332.7700 14.23672244111482
CO-57
1 27848U 03031J   24335.82460399  .00000982  00000-0  45475-3 0  9991
2 27848  98.6809 340.7334 0010365  42.7813 317.4171 14.23054915111231
RS-22
1 27939U 03042A   24336.81458015  .00004136  00000-0  67738-3 0  9997
2 27939  98.3071 136.0344 0010663 249.1197 249.8593 14.71291629132918
NOAA-18
1 28654U 05018A   24336.77887833  .00000603  00000-0  34401-3 0  9992
2 28654  98.8621  52.2610 0013351 310.3593  49.6413 14.13439071  6932
CO-58
1 28895U 05043F   24334.81476865  .00006256  00000-0  10617-2 0  9991
2 28895  98.2233 111.3057 0014972 190.7801 169.3085 14.69487231 18767
CO-65
1 32785U 08021C   24336.49259417  .00012000  00000-0  95103-3 0  9999
2 32785  97.7710 301.0406 0012653 136.3180 223.9047 15.00646765900603
AAUSAT2
1 32788U 08021F   24336.41557510  .00077605  00000-0  22557-2 0  9993
2 32788  97.6045 319.0534 0003036  32.9497 327.1935 15.35161729903903
CO-66
1 32791U 08021J   24335.68353326  .00024429  00000-0  14727-2 0  9990
2 32791  97.7088 306.8347 0007316  94.7795 265.4269 15.10733748901678
RS-30
1 32953U 08025A   24336.79252473  .00000057  00000-0  34088-3 0  9992
2 32953  82.5032 345.2377 0020675  99.1655 261.1765 12.43154419749956
PRISM
1 33493U 09002B   24336.82262988  .00089320  00000-0  23274-2 0  9998
2 33493  98.1787  40.7089 0007884  25.1472 335.0153 15.38489347864639
NOAA-19
1 33591U 09005A   24336.75487606  .00000554  00000-0  32007-3 0  9995
2 33591  99.0262  34.1621 0013926 176.0928 184.0355 14.13216949815293
SRMSAT
1 37841U 11058D   24336.05405667  .00000785  00000-0  28394-3 0  9998
2 37841  19.9710 227.3935 0011869 129.4261 259.3351 14.11298607678382
RS-40
1 38735U 12041C   24336.16508928  .00000050  00000-0  29473-3 0  9994
2 38735  82.4774  65.7640 0017250 212.0428 147.9604 12.42621239560006
ZACUBE-1
1 39417U 13066B   24335.29811376  .00017089  00000-0  16109-2 0  9998
2 39417  97.7565 288.1153 0046435 332.7702  27.1083 14.93039222596331
Delfi-N3xt
1 39428U 13066N   24335.60925557  .00018186  00000-0  20609-2 0  9991
2 39428  97.8369 250.0398 0090365 267.7714  91.3150 14.83471709590719
GOMX-1
1 39430U 13066Q   24336.72632473  .00005193  00000-0  83009-3 0  9998
2 39430  97.7047 200.9254 0137451  79.3047 282.3600 14.66044682587572
LO-74
1 39440U 13066AA  24336.84013750  .00010611  00000-0  11491-2 0  9999
2 39440  97.8304 277.3760 0068000  84.8261 276.0711 14.86705956594416
AO-73
1 39444U 13066AE  24336.35268728  .00018070  00000-0  15368-2 0  9990
2 39444  97.7402 292.8356 0042185 305.8234  53.9071 14.97190352595662
DTUSAT-2
1 40030U 14033W   24336.19591391  .00014982  00000-0  11068-2 0  9996
2 40030  98.0318 293.8049 0010273 356.7528   3.3628 15.03294895568256
EO-80
1 40032U 14033Y   24336.82525842  .00016895  00000-0  12444-2 0  9990
2 40032  98.0233 294.3630 0007002 287.9058  72.1402 15.03400171568334
XW-2C
1 40906U 15049H   24336.75964108  .00140450  00000-0  12775-2 0  9994
2 40906  97.4570   0.1959 0006539  64.7101 295.4837 15.67485227510460
LILACSAT-2
1 40908U 15049K   24336.86718484  .00019053  00000-0  61229-3 0  9995
2 40908  97.5189 347.4136 0012774 113.3769 246.8817 15.32240921509112
IO-86
1 40931U 15052B   24331.15516653  .00002068  00000-0  18982-3 0  9992
2 40931   6.0006 275.0072 0013182 221.8228 138.0892 14.78373291495468
ChubuSat-2
1 41338U 16012B   24336.19715834  .00011740  00000-0  65953-3 0  9999
2 41338  31.0015  33.1692 0010826 118.8631 241.3095 15.12030543482866
ChubuSat-3
1 41339U 16012C   24336.55487308  .00010966  00000-0  63310-3 0  9996
2 41339  31.0085  30.6794 0010875 124.6395 235.5270 15.11038385482888
Horyu-4
1 41340U 16012D   24336.11854422  .00031527  00000-0  12161-2 0  9998
2 41340  31.0013 321.4779 0009915 238.6591 121.3081 15.25078605483575
Lapan A3
1 41603U 16040E   24336.81485924  .00007676  00000-0  28697-3 0  9995
2 41603  97.1385 343.1641 0010139 218.5280 141.5238 15.27560455468799
Pratham
1 41783U 16059A   24336.77826041  .00002536  00000-0  47078-3 0  9992
2 41783  97.8287 348.2775 0031335 206.3824 153.5787 14.65721800437084
CAS-2T
1 41847U 16066G   24335.93184859  .00002663  00000-0  38926-3 0  9995
2 41847  98.4445  45.9702 0350436  34.8948 327.4680 14.42477812423520
CAS-4B
1 42759U 17034B   24336.53501040  .00047361  00000-0  11451-2 0  9993
2 42759  43.0149 353.5027 0013073  47.8494 312.3471 15.40322938413090
CAS-4A
1 42761U 17034D   24336.51783610  .00048028  00000-0  11495-2 0  9998
2 42761  43.0189 351.7619 0013648  57.3334 302.8837 15.40616566413106
D-SAT
1 42794U 17036AF  24336.39690199  .00017133  00000-0  10682-2 0  9991
2 42794  97.4954 312.7062 0099483 300.0707  59.0683 15.05500921405869
TechnoSat
1 42829U 17042E   24336.73593373  .00008615  00000-0  70958-3 0  9999
2 42829  97.3853 148.7813 0011589 229.3896 130.6321 14.99249947402254
AO-91
1 43017U 17073E   24336.08310847  .00015031  00000-0  83081-3 0  9995
2 43017  97.5506 206.0077 0195516  92.9766 269.3849 14.99056681380615
S-Net D
1 43186U 18014G   24336.46973649  .00012182  00000-0  78859-3 0  9996
2 43186  97.5767 235.5900 0010425 146.0018 214.1880 15.08259745373688
S-Net B
1 43187U 18014H   24335.47790680  .00015201  00000-0  98346-3 0  9997
2 43187  97.5770 234.5726 0011279 145.9809 214.2144 15.08220930373534
S-Net A
1 43188U 18014J   24336.47066990  .00012233  00000-0  79168-3 0  9992
2 43188  97.5781 235.6795 0011221 143.1302 217.0700 15.08262413373687
S-Net C
1 43189U 18014K   24336.01069474  .00012520  00000-0  81043-3 0  9997
2 43189  97.5793 235.2066 0012934 139.4035 220.8160 15.08230288372160
Ten-Koh
1 43677U 18084G   24335.69967689  .00007465  00000-0  62898-3 0  9993
2 43677  98.0783 134.6187 0013066 184.4989 175.6117 14.98441339331633
PO-101
1 43678U 18084H   24336.89703638  .00003934  00000-0  34921-3 0  9992
2 43678  98.0872 140.1757 0008279 187.7369 172.3725 14.96759213331995
QO-100
1 43700U 18090A   24336.73629525  .00000172  00000-0  00000+0 0  9998
2 43700   0.0087 303.4601 0001778 348.4984  70.0131  1.00269791 22282
MinXSS-2
1 43758U 18099A   24336.17549537  .00025433  00000-0  12980-2 0  9992
2 43758  97.5326  36.5575 0015344 101.8886 258.4069 15.16599951328021
AO-95
1 43770U 18099N   24334.11257959  .00020765  00000-0  12333-2 0  9997
2 43770  97.5239  28.7961 0012715 153.8446 206.3429 15.11261121327423
RANGE-B
1 43772U 18099Q   24336.43757098  .00032576  00000-0  15578-2 0  9992
2 43772  97.5028  35.4916 0004998  55.2464 304.9240 15.18914233328024
RANGE-A
1 43773U 18099R   24336.37694709  .00010431  00000-0  72120-3 0  9998
2 43773  97.4781  24.3825 0013340 120.9313 239.3227 15.05823856327560
MOVE-II
1 43780U 18099Y   24335.92136631  .00060263  00000-0  19520-2 0  9993
2 43780  97.4982  38.7518 0005305 111.6848 248.4959 15.31786963328291
SNUSat 2
1 43782U 18099AA  24336.57601849  .00017343  00000-0  10768-2 0  9991
2 43782  97.4910  29.3825 0014511  90.1039 270.1853 15.09663672327787
SnugLite
1 43784U 18099AC  24335.90168900  .00019565  00000-0  11535-2 0  9996
2 43784  97.4729  28.0343 0005173  97.2600 262.9218 15.11597351327770
ITASat 1
1 43786U 18099AE  24336.87549707  .00013990  00000-0  89367-3 0  9998
2 43786  97.4880  29.6535 0016877 135.8395 224.4184 15.08639452327818
EAGLET 1
1 43790U 18099AJ  24336.60385749  .00010272  00000-0  70548-3 0  9999
2 43790  97.5074  29.7966 0014387 117.1518 243.1178 15.06069202327440
ESEO
1 43792U 18099AL  24336.06761664  .00004665  00000-0  36709-3 0  9995
2 43792  97.4854  24.8566 0010122  85.5966 274.6415 15.01255228327226
CSIM
1 43793U 18099AM  24336.61239300  .00071760  00000-0  23479-2 0  9993
2 43793  97.5127  41.2947 0009023  86.3937 273.8336 15.31382747328248
JO-97
1 43803U 18099AX  24335.88238872  .00020904  00000-0  11600-2 0  9993
2 43803  97.4983  31.2964 0009910  89.8918 270.3449 15.13732656327850
Suomi 100
1 43804U 18099AY  24334.65971639  .00021711  00000-0  12540-2 0  9994
2 43804  97.5049  29.7843 0015216  94.0559 266.2412 15.12230220327637
